Weather History for Dothan, AL

Change the Weather History Date:

Thursday, October 4, 2012

  Actual Average Record
Temperature  
Mean Temperature 74 °F 71 °F  
Max Temperature 84 °F 83 °F 96 °F (1954)
Min Temperature 63 °F 60 °F 45 °F (2010)
Degree Days  
Heating Degree Days 0 0  
Month to date heating degree days 0 0  
Since 1 July heating degree days 0 2  
Cooling Degree Days 9 7  
Month to date cooling degree days 26 29  
Year to date cooling degree days 2507 2257  
Growing Degree Days 23 (Base 50)    
Moisture  
Dew Point 64 °F    
Average Humidity 87    
Maximum Humidity 100    
Minimum Humidity 53    
Precipitation  
Precipitation 0.01 in 0.11 in 2.79 in (1964)
Month to date precipitation 1.20 0.40  
Year to date precipitation 35.11 42.38  
Sea Level Pressure  
Sea Level Pressure 30.23 in    
Wind  
Wind Speed 3 mph (NE)    
Max Wind Speed 8 mph    
Max Gust Speed -    
Visibility 6 miles    
Events Fog    
T = Trace of Precipitation, MM = Missing Value Source: NWS Daily Summary

Daily Weather History Graph

Daily Weather History Graph

Search for Another Location

Airport:

Trip Planner

Search our weather history database for the weather conditions in past years. The results will help you decide how hot, cold, wet, or windy it might be!

Date:

Astronomy

Oct. 04, 2012 Rise Set
Actual Time 6:37 AM CDT 6:22 PM CDT
Civil Twilight 6:13 AM CDT 6:46 PM CDT
Nautical Twilight 5:45 AM CDT 7:14 PM CDT
Astronomical Twilight 5:17 AM CDT 7:42 PM CDT
Moon 9:14 PM CDT (10/4) 10:37 AM CDT (10/4)
Length of Visible Light 12h 33m
Length of Day
11h 44m
Waning Gibbous, 82% of the Moon is Illuminated
Oct 4
Waning Gibbous
Oct 8
Last Quarter
Oct 15
New
Oct 21
First Quarter
Oct 29
Full

Hourly Weather History & Observations

Time (CDT) Temp. Heat Index Dew Point Humidity Pressure Visibility Wind Dir Wind Speed Gust Speed Precip Events Conditions
12:08 AM 64.4 °F - 62.6 °F 94% 30.20 in 8.0 mi NE 3.5 mph - N/A   Mostly Cloudy
12:38 AM 64.4 °F - 62.6 °F 94% 30.20 in 8.0 mi NE 4.6 mph - N/A   Scattered Clouds
12:53 AM 64.0 °F - 63.0 °F 96% 30.20 in 8.0 mi East 3.5 mph - N/A   Clear
1:44 AM 64.4 °F - 62.6 °F 94% 30.21 in 6.0 mi East 4.6 mph - N/A   Partly Cloudy
1:53 AM 64.0 °F - 63.0 °F 96% 30.19 in 6.0 mi East 4.6 mph - N/A   Scattered Clouds
2:00 AM 64.4 °F - 62.6 °F 94% 30.21 in 5.0 mi East 3.5 mph - N/A   Mostly Cloudy
2:25 AM 64.4 °F - 62.6 °F 94% 30.21 in 5.0 mi Calm Calm - N/A   Scattered Clouds
2:36 AM 64.4 °F - 62.6 °F 94% 30.21 in 5.0 mi NNE 3.5 mph - N/A   Mostly Cloudy
2:50 AM 64.4 °F - 64.4 °F 100% 30.21 in 4.0 mi North 3.5 mph - N/A   Overcast
2:53 AM 64.9 °F - 64.0 °F 97% 30.20 in 2.5 mi Calm Calm - N/A   Overcast
2:59 AM 64.4 °F - 64.4 °F 100% 30.21 in 0.8 mi Calm Calm - N/A   Overcast
3:10 AM 64.4 °F - 64.4 °F 100% 30.22 in 2.0 mi Calm Calm - N/A   Overcast
3:19 AM 64.4 °F - 62.6 °F 94% 30.21 in 3.0 mi Calm Calm - N/A   Overcast
3:25 AM 64.4 °F - 62.6 °F 94% 30.21 in 1.5 mi NE 3.5 mph - N/A   Overcast
3:28 AM 64.4 °F - 62.6 °F 94% 30.21 in 0.8 mi NE 3.5 mph - N/A   Mist
3:38 AM 62.6 °F - 62.6 °F 100% 30.21 in 0.2 mi ENE 3.5 mph - N/A Fog Fog
3:53 AM 64.0 °F - 63.0 °F 96% 30.20 in 0.5 mi East 3.5 mph - N/A Fog Fog
4:10 AM 64.4 °F - 62.6 °F 94% 30.22 in 0.2 mi Calm Calm - 0.01 in Fog Fog
4:53 AM 64.0 °F - 63.0 °F 96% 30.22 in 0.2 mi Calm Calm - 0.01 in Fog Fog
5:12 AM 64.4 °F - 62.6 °F 94% 30.24 in 0.5 mi Calm Calm - N/A Fog Fog
5:19 AM 64.4 °F - 62.6 °F 94% 30.24 in 0.2 mi Calm Calm - N/A Fog Fog
5:53 AM 63.0 °F - 62.1 °F 97% 30.24 in 0.2 mi Calm Calm - N/A Fog Fog
6:31 AM 62.6 °F - 62.6 °F 100% 30.25 in 0.5 mi NNE 3.5 mph - N/A Fog Fog
6:53 AM 63.0 °F - 62.1 °F 97% 30.25 in 0.8 mi North 4.6 mph - N/A   Overcast
6:59 AM 62.6 °F - 62.6 °F 100% 30.26 in 1.5 mi North 3.5 mph - N/A   Overcast
7:03 AM 62.6 °F - 62.6 °F 100% 30.26 in 2.5 mi North 3.5 mph - N/A   Overcast
7:53 AM 64.0 °F - 63.0 °F 96% 30.26 in 1.0 mi Calm Calm - N/A   Overcast
8:51 AM 64.4 °F - 62.6 °F 94% 30.28 in 3.0 mi NNE 3.5 mph - N/A   Overcast
8:53 AM 64.9 °F - 63.0 °F 93% 30.28 in 3.0 mi NNE 3.5 mph - N/A   Overcast
9:00 AM 64.4 °F - 64.4 °F 100% 30.29 in 7.0 mi NNE 3.5 mph - N/A   Overcast
9:09 AM 66.2 °F - 64.4 °F 94% 30.29 in 7.0 mi NNE 3.5 mph - N/A   Overcast
9:26 AM 69.8 °F - 64.4 °F 83% 30.28 in 10.0 mi NNE 6.9 mph - N/A   Mostly Cloudy
9:42 AM 71.6 °F - 64.4 °F 78% 30.28 in 10.0 mi NE 6.9 mph - N/A   Scattered Clouds
9:53 AM 72.0 °F - 66.0 °F 81% 30.27 in 10.0 mi ENE 5.8 mph - N/A   Clear
10:53 AM 75.0 °F - 66.0 °F 73% 30.27 in 10.0 mi ENE 6.9 mph - N/A   Partly Cloudy
11:46 AM 78.8 °F - 66.2 °F 65% 30.27 in 10.0 mi NE 5.8 mph - N/A   Mostly Cloudy
11:53 AM 78.1 °F - 66.9 °F 68% 30.26 in 10.0 mi ENE 3.5 mph - N/A   Mostly Cloudy
12:39 PM 80.6 °F 82.7 °F 66.2 °F 61% 30.26 in 10.0 mi East 5.8 mph - N/A   Mostly Cloudy
12:53 PM 79.0 °F - 66.9 °F 66% 30.24 in 10.0 mi NNE 5.8 mph - N/A   Mostly Cloudy
1:28 PM 80.6 °F 82.7 °F 66.2 °F 61% 30.23 in 10.0 mi Variable 4.6 mph - N/A   Scattered Clouds
1:53 PM 80.1 °F 82.1 °F 66.0 °F 62% 30.21 in 10.0 mi NNE 4.6 mph - N/A   Mostly Cloudy
2:53 PM 82.9 °F 85.0 °F 66.0 °F 56% 30.20 in 10.0 mi NE 8.1 mph - N/A   Scattered Clouds
3:53 PM 84.0 °F 85.8 °F 64.9 °F 53% 30.19 in 10.0 mi Variable 6.9 mph - N/A   Partly Cloudy
4:53 PM 81.0 °F 82.7 °F 64.9 °F 58% 30.18 in 10.0 mi North 4.6 mph - N/A   Scattered Clouds
5:53 PM 75.9 °F - 63.0 °F 64% 30.18 in 10.0 mi North 5.8 mph - N/A   Clear
6:53 PM 71.1 °F - 64.0 °F 78% 30.19 in 10.0 mi NNE 3.5 mph - N/A   Clear
7:53 PM 70.0 °F - 64.0 °F 81% 30.19 in 10.0 mi NNE 4.6 mph - N/A   Clear
8:53 PM 68.0 °F - 64.0 °F 87% 30.22 in 10.0 mi SE 5.8 mph - N/A   Scattered Clouds
9:53 PM 68.0 °F - 64.0 °F 87% 30.22 in 10.0 mi Calm Calm - N/A   Clear
10:53 PM 66.0 °F - 64.0 °F 93% 30.22 in 10.0 mi Calm Calm - N/A   Clear
11:53 PM 66.0 °F - 64.0 °F 93% 30.20 in 10.0 mi NE 3.5 mph - N/A   Clear